Weather in Staromunasipovo

Russia / Republic of Bashkortostan     53°13′44″N   57°34′37″E
В апреле 2022 года жителям России запретили посещать сайт meteo.paraplan.net по решению Генеральной прокуратуры. Аудитория сайта уменьшилась в 10 раз. Владельцы сайта не видят смысла в поддержке погодного сервера в таких условиях. Сайт будет закрыт в октябре.
temp.,
°C
wind,
m/s
gust,
m/s
humid.,
%
clouds,
%
prec.,
mm/h
press.,
hPa
HPBL,
m
3 october, mon
mon323:00−1ese119616 0.0 102911
02:00−2ese119661 0.0 102912
05:00+2ese1188100 0.0 102934
08:00+3se1187100 0.0 102944
11:00+7sse246642 0.0 1028295
14:00+11sse355682 0.0 1027723
17:00+10ese25715 0.0 1028233
20:00+2ese119460 0.0 103110
4 october, tue
tue423:00+2se11855 0.0 103210
02:00+1se11850 0.0 103210
05:000e11845 0.0 103310
08:000e11805 0.0 103411
11:00+8se12501 0.0 1033300
14:00+12sse24351 0.0 1032863
17:00+10se2551100 0.0 1032130
20:00+4ese1164100 0.0 103410
5 october, wed
wed523:00+1ese1166100 0.0 103510
02:00+2e116296 0.0 103611
05:00+2ese1160100 0.0 103510
08:00+2e1159100 0.0 103511
11:00+7se1344100 0.0 1034277
14:00+10sse3539100 0.0 1031688
17:00+8ese2253100 0.0 103023
20:00+6ese1157100 0.0 103111
6 october, thu
thu623:00+6ese1157100 0.0 102919
02:00+3ese1159100 0.0 102810
05:00+4ese1154100 0.0 102611
08:00+5se1150100 0.0 102412
11:00+6e1273100 0.9 102382
14:00+8se2872100 0.9 1021498
17:00+8se3969100 0.9 1019331
20:00+6sse2265100 0.0 101925
7 october, fri
fri723:00+6s1170100 0.0 101720
02:00+6ssw2272100 0.0 101715
05:00+6sw287881 0.0 1016356
08:00+4w399335 0.3 1017493
11:00+6w5875100 0.3 1017999
14:00+7w586947 0.1 10171151
17:00+8wsw4957100 0.1 10161430
20:00+6wsw3976100 0.0 1017388